This is the latest recevied weather packets stored in our database for station/object WI5KEY. If no packets are shown the sender has not sent any weather packets the latest 10 day(s).
| Time | Temp. | Humidity | Pressure | Rain* | Wind** | Luminosity | Snow |
|---|---|---|---|---|---|---|---|
| 1777491027 | 27.22° C | 82% | 1010.6 hPa | 0 mm | - | - | - |
| 1777490112 | 27.22° C | 81% | 1011 hPa | 0 mm | - | - | - |
| 1777489216 | 27.78° C | 81% | 1011.1 hPa | 0 mm | - | - | - |
| 1777488311 | 27.78° C | 81% | 1010.8 hPa | 0 mm | - | - | - |
| 1777487410 | 27.78° C | 82% | 1010.8 hPa | 0 mm | - | - | - |
| 1777486510 | 27.78° C | 81% | 1010.8 hPa | 0 mm | - | - | - |
| 1777485609 | 27.78° C | 81% | 1011.3 hPa | 0 mm | - | - | - |
| 1777484710 | 27.78° C | 81% | 1011.3 hPa | 0 mm | - | - | - |
| 1777483808 | 27.78° C | 81% | 1011 hPa | 0 mm | - | - | - |
| 1777482905 | 27.22° C | 83% | 1011.1 hPa | 0 mm | - | - | - |
| 1777482003 | 27.22° C | 82% | 1011.5 hPa | 0 mm | - | - | - |
| 1777481108 | 27.22° C | 83% | 1011.3 hPa | 0 mm | - | - | - |
| 1777480202 | 27.22° C | 83% | 1011.3 hPa | 0 mm | - | - | - |
| 1777479302 | 27.22° C | 83% | 1011.7 hPa | 0 mm | - | - | - |
| 1777478465 | 27.22° C | 84% | 1011.6 hPa | 0 mm | - | - | - |
| 1777477571 | 27.22° C | 84% | 1012 hPa | 0 mm | - | - | - |
| 1777476672 | 26.67° C | 86% | 1011.9 hPa | 0 mm | - | - | - |
| 1777475752 | 26.67° C | 87% | 1012 hPa | 0 mm | - | - | - |
| 1777474849 | 26.11° C | 88% | 1011.8 hPa | 0 mm | - | - | - |
| 1777473951 | 26.11° C | 89% | 1011.5 hPa | 0 mm | - | - | - |
| 1777473048 | 25.56° C | 90% | 1011.6 hPa | 0 mm | - | - | - |
| 1777472147 | 25.56° C | 90% | 1011.5 hPa | 0 mm | - | - | - |
| 1777471246 | 25.56° C | 91% | 1011.4 hPa | 0 mm | - | - | - |
| 1777470345 | 25° C | 91% | 1011.3 hPa | 0 mm | - | - | - |
| 1777469447 | 25° C | 91% | 1011.4 hPa | 0 mm | - | - | - |
* Rain latest hour (hover to see other rain measurements)
** Current wind speed in m/s (hover to see current wind gust speed)